Regional Weather Roundup
Issued by NWS

Home | Current Version | Previous Version | Graphics & Text | Print | Product List | Glossary On
Versions: 1 2 3 4 5 6 7 8 9 10 11 12 13 14 15 16 17 18 19 20 21 22 23 24 25 26 27 28 29 30 31 32 33 34 35 36 37 38 39 40 41 42 43 44 45 46 47 48 49 50
000
ASUS45 KPSR 290600
RWRAZ

PRELIMINARY ARIZONA REGIONAL HOURLY WEATHER ROUNDUP
NATIONAL WEATHER SERVICE PHOENIX AZ
1100 PM MST WED JAN 28 2015

NOTE: FAIR INDICATES FEW OR NO CLOUDS BELOW 12,000 FEET WITH NO
SIGNIFICANT WEATHER AND/OR OBSTRUCTIONS TO VISIBILITY.

AZZ001>003-036-290700-
NORTHWEST ARIZONA

CITY           SKY/WX    TMP DP  RH WIND       PRES   REMARKS
KINGMAN        CLOUDY    49  42  77 E7        30.21F
6HR MIN TEMP:  49; 6HR MAX TEMP:  58;

$$

AZZ004>008-015-016-018-290700-
NORTH CENTRAL ARIZONA

CITY           SKY/WX    TMP DP  RH WIND       PRES   REMARKS
GRAND CANYON   CLOUDY    37  31  78 CALM      30.29R
6HR MIN TEMP:  36; 6HR MAX TEMP:  47;

PRESCOTT       CLOUDY    46  35  65 S5        30.22S
6HR MIN TEMP:  45; 6HR MAX TEMP:  57;

FLAGSTAFF      NOT AVBL
PAYSON         CLOUDY    52  34  50 E5        30.23S
$$

AZZ009>014-017-290700-
NORTHEAST ARIZONA

CITY           SKY/WX    TMP DP  RH WIND       PRES   REMARKS
WINSLOW        NOT AVBL
SAINT JOHNS    MOCLDY    41  30  65 SE3       30.26R
6HR MIN TEMP:  40; 6HR MAX TEMP:  58;

WINDOW ROCK    CLOUDY    34  28  79 SW5       30.30S WCI  30
6HR MIN TEMP:  32; 6HR MAX TEMP:  54;

SHOW LOW       CLOUDY    37  28  70 CALM      30.30F
$$

AZZ023-290700-
GREATER PHOENIX AREA

CITY           SKY/WX    TMP DP  RH WIND       PRES   REMARKS
PHOENIX        CLOUDY    65  51  60 W5        30.07S
6HR MIN TEMP:  64; 6HR MAX TEMP:  74;

LUKE AFB       NOT AVBL
6HR MIN TEMP:  60; 6HR MAX TEMP:  71;

DEER VALLEY    CLOUDY    61  47  59 NE3       30.07F
6HR MIN TEMP:  61; 6HR MAX TEMP:  72;

SCOTTSDALE     CLOUDY    62  48  60 CALM      30.09S
6HR MIN TEMP:  61; 6HR MAX TEMP:  72;

MESA-GATEWAY   CLOUDY    59  54  82 CALM      30.11R
$$

AZZ027-028-290700-
SOUTHWEST MARICOPA COUNTY AND PINAL COUNTY

CITY           SKY/WX    TMP DP  RH WIND       PRES   REMARKS
CASA GRANDE    CLOUDY    61  48  63 CALM      30.10S
6HR MIN TEMP:  61; 6HR MAX TEMP:  70;

GILA BEND      MOCLDY    61  56  85 SW2       30.09S
6HR MIN TEMP:  60; 6HR MAX TEMP:  70;

$$

AZZ503-504-507>509-290700-
SOUTHEAST ARIZONA

CITY           SKY/WX    TMP DP  RH WIND       PRES   REMARKS
TUCSON         CLOUDY    60  50  69 SW6       30.15R
6HR MIN TEMP:  60; 6HR MAX TEMP:  74;

DAVIS-MONTHAN  CLOUDY    58  51  77 S6        30.13R
6HR MIN TEMP:  57; 6HR MAX TEMP:  72;

NOGALES        MOCLDY    54  40  59 S5        30.16S
6HR MIN TEMP:  54; 6HR MAX TEMP:  72;

SIERRA VISTA   MOCLDY    55  37  50 CALM      30.18S
SAFFORD        MOCLDY    53  36  52 S3        30.13R
6HR MIN TEMP:  52; 6HR MAX TEMP:  72;

$$

AZZ020-021-025-026-031-290700-
SOUTHWEST ARIZONA

CITY           SKY/WX    TMP DP  RH WIND       PRES   REMARKS
YUMA           CLOUDY    63  51  65 CALM      30.10S
6HR MIN TEMP:  62; 6HR MAX TEMP:  71;

$$

CAZ031-033-041-043-047-048-061-290700-
SOUTHERN CALIFORNIA

CITY           SKY/WX    TMP DP  RH WIND       PRES   REMARKS
DOWNTOWN L.A.  CLOUDY    63  52  67 CALM      30.09R
6HR MIN TEMP:  63; 6HR MAX TEMP:  68;

L.A. AIRPORT   MOCLDY    64  52  64 VRB5      30.09S
6HR MIN TEMP:  61; 6HR MAX TEMP:  66;

SAN DIEGO      CLOUDY    66  52  60 CALM      30.09F
6HR MIN TEMP:  63; 6HR MAX TEMP:  71;

BURBANK        CLOUDY    64  43  46 NW6       30.10S
6HR MIN TEMP:  64; 6HR MAX TEMP:  71;

ONTARIO        CLOUDY    63  47  55 W7        30.10S
6HR MIN TEMP:  61; 6HR MAX TEMP:  70;

RIVERSIDE      CLOUDY    64  44  48 E3        30.11S
6HR MIN TEMP:  64; 6HR MAX TEMP:  70;

PALM SPRINGS   CLOUDY    67  45  45 W3        30.13F
6HR MIN TEMP:  66; 6HR MAX TEMP:  73;

EL CENTRO NAS  CLOUDY    61  52  72 SW7       30.10R
6HR MIN TEMP:  60; 6HR MAX TEMP:  70;

IMPERIAL       CLOUDY    60  51  72 S3        30.10R
6HR MIN TEMP:  60; 6HR MAX TEMP:  70;

BLYTHE         CLOUDY    62  52  69 SW3       30.12R
6HR MIN TEMP:  62; 6HR MAX TEMP:  70;

$$

NVZ020-UTZ003-290700-
SOUTHERN NEVADA-UTAH

CITY           SKY/WX    TMP DP  RH WIND       PRES   REMARKS
LAS VEGAS      NOT AVBL
SALT LAKE CITY PTCLDY    35  33  92 CALM      30.35S
6HR MIN TEMP:  35; 6HR MAX TEMP:  46;

$$

NMZ009-TXZ055-290700-
NEW MEXICO-WEST TEXAS

CITY           SKY/WX    TMP DP  RH WIND       PRES   REMARKS
ALBUQUERQUE    CLOUDY    48  30  49 W6        30.26R
6HR MIN TEMP:  48; 6HR MAX TEMP:  58;

EL PASO        PTCLDY    50  37  61 SE6       30.16S
6HR MIN TEMP:  50; 6HR MAX TEMP:  70;

$$


........................KEY........................
SKY/WX - SKY CONDITION/WEATHER
TMP    - TEMPERATURE IN FAHRENHEIT
DP     - DEW POINT IN FAHRENHEIT
RH     - RELATIVE HUMIDITY IN PERCENT
WIND   - DIRECTION AND SPEED IN MILES PER HOUR (MPH)
VRB    - VARIABLE WIND DIRECTION
PRES   - MEAN SEA LEVEL PRESSURE IN INCHES OF MERCURY
         F - FALLING PRESSURE   R - RISING PRESSURE
         S - STEADY PRESSURE
VSB    - VISIBILITY IN MILES
HX     - HEAT INDEX IN FAHRENHEIT
WCI    - WIND CHILL INDEX IN FAHRENHEIT
TC     - TEMPERATURE IN CELSIUS WHICH IS ALSO KNOWN AS
         TEMPERATURE IN CENTIGRADE
AFB    - AIR FORCE BASE
         LUKE AFB IS LUKE AIR FORCE BASE
         DAVIS-MONTHAN IS DAVIS-MONTHAN AIR FORCE BASE
NAS    - NAVAL AIR STATION
         EL CENTRO NAS IS EL CENTRO NAVAL AIR STATION
N/A    - NOT AVAILABLE


USA.gov is the U.S. government's official web portal to all federal, state and local government web resources and services.